Location: Newark
(46.7636°N, 1.8358°W)
Time: 21:59:16
(UTC+00:00)

A-11 Canister half - Visible Passes

Search period start: 18 October 2019 00:00
Search period end: 28 October 2019 00:00
Orbit: 1527 x 1682 km, 47.3° (Epoch: 17 October)

Date Brightness Start Highest point End Pass type
(mag) Time Alt. Az. Time Alt. Az. Time Alt. Az.
18 Oct 10.1 02:48:41 28° SSE 02:48:41 28° SSE 02:52:42 10° SE visible
18 Oct 10.2 04:47:03 18° SW 04:47:03 18° SW 04:52:39 10° SSW visible
18 Oct 10.3 18:00:16 10° SSE 18:04:38 14° SE 18:08:39 11° E visible
18 Oct 9.2 19:58:57 10° SSW 20:06:59 46° SSE 20:06:59 46° SSE visible
18 Oct 10.5 22:02:50 10° WSW 22:05:19 21° WSW 22:05:19 21° WSW visible
19 Oct 10.6 02:29:07 18° SE 02:29:07 18° SE 02:31:10 10° SE visible
19 Oct 10.3 04:27:29 17° SW 04:27:29 17° SW 04:31:26 10° SSW visible
19 Oct 10.4 17:39:16 10° SSE 17:43:08 13° ESE 17:46:56 10° E visible
19 Oct 9.1 19:37:26 10° SSW 19:46:12 45° SE 19:46:58 44° SE visible
19 Oct 10.1 21:41:12 10° WSW 21:45:18 30° WSW 21:45:18 30° WSW visible
20 Oct 11.0 02:09:33 10° SE 02:09:33 10° SE 02:09:36 10° SE visible
20 Oct 10.5 04:07:55 15° SSW 04:07:55 15° SSW 04:10:11 10° S visible
20 Oct 9.3 19:15:55 10° SSW 19:24:38 43° SE 19:26:53 38° ESE visible
20 Oct 9.7 21:19:35 10° WSW 21:25:12 42° WSW 21:25:12 42° WSW visible
21 Oct 10.7 03:48:22 11° S 03:48:22 11° S 03:48:54 10° S visible
21 Oct 9.4 18:54:25 10° SSW 19:03:04 42° SE 19:06:42 30° E visible
21 Oct 9.2 20:57:57 10° WSW 21:05:00 56° WSW 21:05:00 56° WSW visible
21 Oct 11.1 23:03:07 10° W 23:03:20 11° W 23:03:20 11° W visible
22 Oct 9.4 18:32:55 10° SSW 18:41:30 40° SE 18:46:27 24° E visible
22 Oct 8.9 20:36:19 10° WSW 20:44:46 73° SW 20:44:46 73° SW visible
22 Oct 10.8 22:41:28 10° W 22:43:04 17° W 22:43:04 17° W visible
23 Oct 9.5 18:11:26 10° SSW 18:19:56 38° SE 18:26:08 18° E visible
23 Oct 8.7 20:14:42 10° WSW 20:24:08 79° SSE 20:24:26 78° SE visible
23 Oct 10.5 22:19:50 10° W 22:22:44 23° W 22:22:44 23° W visible
24 Oct 9.6 17:49:57 10° SSW 17:58:22 37° SE 18:05:46 13° ENE visible
24 Oct 8.8 19:53:05 10° WSW 20:02:32 77° SSE 20:04:04 65° E visible
24 Oct 10.2 21:58:12 10° W 22:02:22 31° W 22:02:22 31° W visible
25 Oct 9.7 17:28:29 10° SSW 17:36:48 35° SE 17:44:57 10° ENE visible
25 Oct 8.8 19:31:27 10° WSW 19:40:55 76° SSE 19:43:39 51° E visible
25 Oct 9.8 21:36:32 10° W 21:41:57 40° W 21:41:57 40° W visible
26 Oct 8.9 19:09:50 10° WSW 19:19:18 74° SSE 19:23:12 40° E visible
26 Oct 9.4 21:14:54 10° W 21:21:30 51° W 21:21:30 51° W visible
27 Oct 8.9 18:48:13 10° WSW 18:57:42 72° SSE 19:02:43 31° E visible
27 Oct 9.1 20:53:15 10° W 21:01:01 65° W 21:01:01 65° W visible
27 Oct 11.0 22:58:26 10° WNW 22:59:18 13° WNW 22:59:18 13° WNW visible
